QPF
0.00 0.00 0.00 0.00 0.01 0.02 0.03 0.03 0.02 0.00 0.00 0.00 0.00 0.01 0.02 0.04 0.06 0.10 0.03 0.01 0.00 0.00 0.00 0.00 0.00 0.01 0.01 0.01 0.00 0.00 0.01 0.01 0.01 0.01 0.01 0.01 0.01 0.01 0.01 0.01 0.01 0.01 0.01 0.01 0.01 0.01 0.01 0.02 0.02
0.00 0.00 0.00 0.01 0.02 0.03 0.03 0.02 0.03 0.01 0.00 0.00 0.00 0.00 0.02 0.02 0.02 0.02 0.01 0.01 0.01 0.01 0.00 0.00 0.00 0.01 0.01 0.01 0.01 0.01 0.01 0.01 0.02 0.03 0.02 0.01 0.01 0.02 0.02 0.02 0.02 0.02 0.02 0.02 0.02 0.02 0.02 0.02 0.02
0.00 0.00 0.00 0.01 0.02 0.03 0.04 0.02 0.02 0.01 0.00 0.00 0.00 0.01 0.02 0.01 0.01 0.01 0.01 0.01 0.01 0.01 0.01 0.00 0.01 0.01 0.00 0.01 0.01 0.01 0.01 0.01 0.02 0.02 0.02 0.03 0.03 0.03 0.02 0.03 0.03 0.03 0.03 0.03 0.03 0.02 0.02 0.02 0.01
0.00 0.00 0.00 0.01 0.02 0.03 0.03 0.02 0.02 0.01 0.00 0.00 0.01 0.02 0.04 0.02 0.02 0.01 0.01 0.01 0.01 0.01 0.02 0.01 0.01 0.01 0.01 0.01 0.01 0.01 0.01 0.02 0.02 0.02 0.03 0.05 0.03 0.03 0.04 0.04 0.04 0.03 0.02 0.02 0.02 0.02 0.02 0.02 0.02
0.00 0.01 0.01 0.03 0.02 0.02 0.02 0.02 0.02 0.03 0.01 0.01 0.01 0.03 0.03 0.01 0.02 0.00 0.00 0.00 0.01 0.02 0.02 0.02 0.01 0.02 0.02 0.01 0.02 0.02 0.03 0.03 0.02 0.03 0.03 0.04 0.03 0.03 0.04 0.04 0.03 0.03 0.02 0.02 0.02 0.02 0.02 0.01 0.01
0.01 0.01 0.02 0.04 0.02 0.01 0.01 0.05 0.07 0.05 0.01 0.01 0.01 0.03 0.04 0.01 0.00 0.00 0.00 0.00 0.01 0.01 0.02 0.03 0.02 0.02 0.02 0.02 0.02 0.02 0.03 0.02 0.02 0.02 0.03 0.03 0.03 0.02 0.02 0.02 0.02 0.03 0.03 0.03 0.03 0.03 0.02 0.01 0.01
0.01 0.01 0.02 0.04 0.02 0.02 0.02 0.05 0.11 0.10 0.03 0.01 0.01 0.02 0.03 0.02 0.00 0.00 0.00 0.01 0.02 0.02 0.03 0.03 0.03 0.03 0.03 0.02 0.01 0.02 0.02 0.01 0.01 0.01 0.01 0.02 0.02 0.01 0.01 0.02 0.02 0.02 0.02 0.02 0.03 0.03 0.02 0.02 0.02
0.00 0.01 0.02 0.02 0.02 0.03 0.02 0.04 0.04 0.04 0.03 0.00 0.01 0.01 0.01 0.01 0.00 0.01 0.01 0.03 0.03 0.04 0.04 0.03 0.04 0.03 0.03 0.03 0.03 0.02 0.01 0.01 0.01 0.01 0.01 0.01 0.01 0.02 0.02 0.02 0.02 0.02 0.02 0.02 0.02 0.03 0.03 0.03 0.04
0.00 0.01 0.01 0.01 0.04 0.04 0.04 0.05 0.04 0.02 0.06 0.01 0.01 0.01 0.01 0.01 0.01 0.01 0.02 0.03 0.04 0.05 0.03 0.02 0.02 0.02 0.03 0.03 0.03 0.03 0.02 0.01 0.01 0.02 0.01 0.02 0.02 0.03 0.04 0.02 0.02 0.02 0.01 0.01 0.01 0.01 0.02 0.03 0.05
0.01 0.02 0.02 0.04 0.07 0.07 0.07 0.05 0.04 0.02 0.03 0.01 0.00 0.01 0.01 0.01 0.01 0.01 0.02 0.03 0.05 0.04 0.02 0.01 0.01 0.01 0.01 0.02 0.03 0.03 0.03 0.04 0.03 0.04 0.03 0.04 0.05 0.05 0.04 0.03 0.03 0.03 0.02 0.01 0.01 0.01 0.01 0.02 0.04
0.02 0.05 0.03 0.03 0.06 0.09 0.09 0.05 0.02 0.03 0.02 0.01 0.00 0.01 0.02 0.01 0.02 0.03 0.04 0.04 0.03 0.03 0.02 0.01 0.01 0.02 0.03 0.03 0.04 0.04 0.06 0.09 0.08 0.08 0.08 0.08 0.06 0.05 0.04 0.04 0.03 0.03 0.02 0.03 0.03 0.03 0.02 0.03 0.04
0.01 0.01 0.01 0.02 0.01 0.02 0.05 0.03 0.02 0.03 0.03 0.01 0.00 0.01 0.01 0.01 0.02 0.03 0.03 0.02 0.02 0.02 0.01 0.02 0.03 0.04 0.05 0.04 0.05 0.05 0.06 0.09 0.12 0.11 0.08 0.08 0.06 0.05 0.05 0.05 0.04 0.04 0.05 0.05 0.04 0.05 0.05 0.04 0.05
0.00 0.00 0.01 0.01 0.01 0.01 0.01 0.01 0.02 0.02 0.04 0.01 0.01 0.01 0.02 0.02 0.02 0.03 0.03 0.02 0.01 0.02 0.02 0.02 0.03 0.06 0.07 0.07 0.07 0.07 0.10 0.14 0.11 0.07 0.07 0.07 0.06 0.06 0.06 0.05 0.04 0.03 0.04 0.04 0.04 0.04 0.04 0.05 0.07
0.00 0.00 0.00 0.01 0.01 0.01 0.01 0.02 0.05 0.03 0.03 0.01 0.02 0.03 0.02 0.02 0.02 0.03 0.04 0.06 0.04 0.04 0.04 0.04 0.04 0.05 0.06 0.07 0.08 0.12 0.13 0.10 0.08 0.06 0.06 0.06 0.06 0.05 0.05 0.05 0.06 0.05 0.04 0.04 0.05 0.05 0.06 0.07 0.08
0.00 0.00 0.01 0.01 0.01 0.01 0.02 0.03 0.05 0.05 0.04 0.03 0.04 0.05 0.04 0.03 0.03 0.04 0.07 0.13 0.12 0.07 0.05 0.04 0.04 0.05 0.08 0.09 0.10 0.11 0.09 0.07 0.05 0.05 0.05 0.04 0.04 0.05 0.05 0.05 0.05 0.05 0.05 0.06 0.06 0.06 0.07 0.06 0.07
0.00 0.00 0.02 0.02 0.01 0.01 0.03 0.04 0.04 0.04 0.05 0.04 0.04 0.06 0.09 0.08 0.10 0.08 0.07 0.11 0.11 0.07 0.04 0.03 0.04 0.07 0.10 0.11 0.12 0.10 0.09 0.07 0.05 0.05 0.05 0.04 0.04 0.04 0.05 0.05 0.05 0.07 0.07 0.07 0.07 0.07 0.09 0.10 0.09
0.01 0.02 0.02 0.02 0.01 0.02 0.03 0.06 0.05 0.03 0.04 0.03 0.03 0.04 0.07 0.07 0.09 0.08 0.05 0.07 0.12 0.09 0.05 0.05 0.05 0.06 0.09 0.09 0.09 0.12 0.10 0.09 0.07 0.08 0.09 0.09 0.07 0.06 0.07 0.07 0.06 0.06 0.07 0.07 0.06 0.07 0.09 0.10 0.10
0.01 0.02 0.02 0.01 0.01 0.02 0.05 0.09 0.08 0.04 0.03 0.04 0.05 0.05 0.05 0.04 0.05 0.05 0.04 0.10 0.10 0.08 0.05 0.04 0.05 0.06 0.06 0.05 0.05 0.07 0.08 0.08 0.08 0.10 0.10 0.10 0.09 0.07 0.08 0.07 0.07 0.07 0.08 0.08 0.07 0.10 0.10 0.10 0.10
0.01 0.01 0.02 0.01 0.00 0.02 0.05 0.09 0.08 0.05 0.02 0.03 0.04 0.05 0.04 0.03 0.03 0.03 0.03 0.05 0.06 0.04 0.03 0.04 0.04 0.04 0.04 0.04 0.06 0.07 0.08 0.09 0.11 0.12 0.12 0.10 0.07 0.07 0.09 0.09 0.09 0.08 0.08 0.09 0.09 0.12 0.13 0.12 0.11
0.01 0.02 0.03 0.01 0.00 0.03 0.04 0.07 0.05 0.04 0.02 0.03 0.04 0.04 0.03 0.03 0.02 0.02 0.01 0.02 0.03 0.02 0.01 0.02 0.04 0.05 0.05 0.06 0.08 0.08 0.09 0.10 0.14 0.16 0.15 0.12 0.10 0.09 0.09 0.10 0.09 0.10 0.11 0.11 0.11 0.12 0.12 0.11 0.12
0.01 0.02 0.03 0.02 0.01 0.03 0.03 0.04 0.04 0.02 0.02 0.03 0.03 0.03 0.02 0.02 0.02 0.01 0.01 0.02 0.02 0.02 0.02 0.02 0.03 0.04 0.06 0.06 0.06 0.08 0.10 0.12 0.13 0.12 0.12 0.11 0.09 0.08 0.10 0.12 0.13 0.15 0.15 0.15 0.13 0.12 0.12 0.12 0.13
0.01 0.00 0.00 0.01 0.02 0.03 0.02 0.04 0.05 0.03 0.02 0.02 0.02 0.02 0.02 0.02 0.02 0.01 0.01 0.02 0.02 0.02 0.02 0.02 0.02 0.04 0.04 0.04 0.05 0.06 0.09 0.12 0.11 0.09 0.10 0.10 0.11 0.08 0.08 0.09 0.10 0.12 0.12 0.11 0.10 0.10 0.10 0.10 0.09
0.00 0.00 0.01 0.01 0.02 0.03 0.03 0.05 0.07 0.06 0.05 0.03 0.02 0.03 0.02 0.02 0.02 0.02 0.02 0.04 0.03 0.02 0.02 0.02 0.03 0.03 0.03 0.04 0.05 0.06 0.08 0.12 0.11 0.10 0.12 0.12 0.12 0.11 0.09 0.08 0.09 0.09 0.09 0.08 0.07 0.07 0.06 0.06 0.06
0.00 0.00 0.01 0.02 0.02 0.03 0.03 0.04 0.08 0.09 0.07 0.06 0.06 0.02 0.01 0.02 0.03 0.03 0.03 0.05 0.03 0.02 0.02 0.02 0.03 0.03 0.04 0.05 0.06 0.06 0.07 0.08 0.09 0.08 0.10 0.11 0.11 0.09 0.06 0.05 0.06 0.07 0.06 0.06 0.06 0.06 0.07 0.07 0.06
0.00 0.03 0.05 0.04 0.04 0.04 0.02 0.03 0.08 0.10 0.05 0.05 0.06 0.04 0.02 0.02 0.02 0.02 0.02 0.03 0.03 0.03 0.03 0.02 0.03 0.04 0.05 0.04 0.05 0.07 0.07 0.08 0.09 0.10 0.10 0.08 0.08 0.07 0.05 0.05 0.05 0.05 0.05 0.05 0.06 0.06 0.06 0.06 0.06
0.00 0.02 0.06 0.06 0.05 0.04 0.03 0.05 0.08 0.09 0.05 0.03 0.03 0.02 0.02 0.02 0.02 0.02 0.02 0.02 0.01 0.01 0.01 0.02 0.02 0.03 0.03 0.03 0.04 0.07 0.07 0.08 0.08 0.09 0.09 0.07 0.07 0.06 0.05 0.05 0.05 0.05 0.06 0.05 0.06 0.06 0.06 0.06 0.06
0.00 0.00 0.01 0.02 0.03 0.04 0.04 0.07 0.08 0.06 0.05 0.03 0.03 0.04 0.03 0.02 0.03 0.02 0.02 0.01 0.01 0.01 0.01 0.02 0.02 0.02 0.03 0.03 0.04 0.07 0.08 0.08 0.06 0.05 0.06 0.05 0.05 0.05 0.04 0.05 0.05 0.05 0.06 0.07 0.07 0.07 0.06 0.06 0.05
0.00 0.01 0.01 0.03 0.05 0.08 0.07 0.08 0.10 0.08 0.09 0.05 0.04 0.05 0.04 0.03 0.03 0.03 0.02 0.02 0.01 0.01 0.01 0.02 0.02 0.03 0.05 0.07 0.08 0.10 0.10 0.08 0.04 0.03 0.04 0.04 0.04 0.04 0.04 0.04 0.05 0.06 0.06 0.06 0.08 0.08 0.07 0.07 0.07
0.01 0.01 0.03 0.06 0.06 0.07 0.11 0.10 0.08 0.08 0.07 0.05 0.04 0.03 0.03 0.03 0.04 0.04 0.02 0.02 0.01 0.01 0.02 0.02 0.02 0.03 0.09 0.13 0.11 0.11 0.10 0.07 0.06 0.04 0.04 0.05 0.04 0.04 0.04 0.05 0.05 0.05 0.06 0.05 0.06 0.07 0.07 0.07 0.07
0.02 0.02 0.02 0.05 0.05 0.04 0.08 0.08 0.05 0.04 0.04 0.03 0.03 0.03 0.03 0.04 0.06 0.04 0.03 0.03 0.03 0.03 0.04 0.02 0.02 0.03 0.05 0.05 0.06 0.08 0.08 0.05 0.05 0.04 0.04 0.04 0.03 0.04 0.05 0.05 0.06 0.04 0.05 0.06 0.07 0.06 0.05 0.05 0.05
MSLP
1007.48 1007.98 1008.38 1008.56 1008.44 1008.03 1007.39 1006.64 1005.93 1005.37 1005.03 1004.92 1004.97 1005.08 1005.17 1005.14 1004.96 1004.66 1004.32 1004.04 1003.91 1004.00 1004.32 1004.84 1005.50 1006.19 1006.84 1007.40 1007.87 1008.25 1008.61 1008.99 1009.42 1009.92 1010.46 1011.00 1011.51 1011.94 1012.28 1012.52 1012.69 1012.83 1012.96 1013.11 1013.28 1013.47 1013.66 1013.82 1013.95
1007.56 1008.06 1008.38 1008.43 1008.16 1007.60 1006.83 1006.00 1005.25 1004.69 1004.38 1004.30 1004.39 1004.53 1004.63 1004.61 1004.44 1004.17 1003.86 1003.63 1003.57 1003.73 1004.13 1004.72 1005.44 1006.19 1006.89 1007.50 1008.01 1008.44 1008.83 1009.24 1009.68 1010.16 1010.68 1011.18 1011.64 1012.02 1012.31 1012.52 1012.68 1012.81 1012.96 1013.13 1013.33 1013.54 1013.75 1013.91 1014.04
1007.65 1008.10 1008.32 1008.23 1007.81 1007.13 1006.30 1005.46 1004.73 1004.23 1003.98 1003.95 1004.06 1004.19 1004.26 1004.20 1003.99 1003.70 1003.40 1003.21 1003.21 1003.46 1003.95 1004.63 1005.43 1006.25 1007.02 1007.68 1008.23 1008.69 1009.10 1009.51 1009.94 1010.40 1010.86 1011.31 1011.71 1012.04 1012.28 1012.47 1012.62 1012.77 1012.94 1013.16 1013.40 1013.65 1013.88 1014.06 1014.17
1007.76 1008.11 1008.19 1007.96 1007.43 1006.69 1005.86 1005.07 1004.44 1004.05 1003.89 1003.92 1004.04 1004.14 1004.14 1003.99 1003.71 1003.36 1003.06 1002.90 1002.97 1003.30 1003.89 1004.67 1005.55 1006.44 1007.25 1007.94 1008.51 1008.97 1009.38 1009.77 1010.17 1010.59 1011.01 1011.40 1011.75 1012.03 1012.25 1012.42 1012.57 1012.75 1012.96 1013.21 1013.50 1013.78 1014.03 1014.21 1014.31
1007.83 1008.05 1007.99 1007.63 1007.03 1006.28 1005.51 1004.85 1004.37 1004.13 1004.09 1004.18 1004.31 1004.35 1004.26 1004.01 1003.65 1003.25 1002.93 1002.81 1002.94 1003.36 1004.03 1004.89 1005.83 1006.74 1007.56 1008.24 1008.78 1009.21 1009.59 1009.95 1010.32 1010.70 1011.09 1011.46 1011.78 1012.04 1012.25 1012.42 1012.59 1012.78 1013.02 1013.30 1013.60 1013.90 1014.15 1014.32 1014.39
1007.83 1007.90 1007.69 1007.23 1006.60 1005.89 1005.24 1004.74 1004.45 1004.38 1004.47 1004.63 1004.75 1004.74 1004.57 1004.23 1003.78 1003.35 1003.04 1002.95 1003.15 1003.64 1004.38 1005.28 1006.22 1007.12 1007.88 1008.50 1008.98 1009.35 1009.68 1010.00 1010.35 1010.72 1011.11 1011.48 1011.80 1012.07 1012.29 1012.47 1012.65 1012.85 1013.09 1013.37 1013.67 1013.95 1014.18 1014.31 1014.34
1007.72 1007.63 1007.29 1006.76 1006.13 1005.50 1004.99 1004.67 1004.57 1004.66 1004.87 1005.08 1005.20 1005.15 1004.91 1004.51 1004.03 1003.59 1003.31 1003.28 1003.55 1004.10 1004.86 1005.75 1006.65 1007.47 1008.14 1008.65 1009.03 1009.33 1009.60 1009.89 1010.23 1010.62 1011.03 1011.44 1011.80 1012.11 1012.35 1012.55 1012.73 1012.92 1013.14 1013.38 1013.64 1013.88 1014.06 1014.15 1014.13
1007.50 1007.27 1006.83 1006.26 1005.65 1005.11 1004.74 1004.58 1004.64 1004.86 1005.15 1005.40 1005.51 1005.43 1005.15 1004.73 1004.26 1003.86 1003.64 1003.68 1004.01 1004.59 1005.35 1006.19 1007.00 1007.70 1008.24 1008.63 1008.90 1009.12 1009.34 1009.62 1009.98 1010.41 1010.88 1011.34 1011.76 1012.11 1012.38 1012.59 1012.77 1012.93 1013.11 1013.31 1013.50 1013.67 1013.79 1013.83 1013.78
1007.18 1006.86 1006.36 1005.78 1005.21 1004.75 1004.49 1004.45 1004.61 1004.90 1005.22 1005.47 1005.56 1005.46 1005.18 1004.79 1004.37 1004.05 1003.93 1004.05 1004.43 1005.02 1005.74 1006.50 1007.18 1007.74 1008.14 1008.41 1008.59 1008.74 1008.94 1009.24 1009.63 1010.12 1010.65 1011.17 1011.65 1012.04 1012.35 1012.57 1012.73 1012.87 1013.00 1013.13 1013.26 1013.37 1013.43 1013.42 1013.33
1006.83 1006.47 1005.95 1005.38 1004.86 1004.47 1004.28 1004.29 1004.48 1004.77 1005.07 1005.28 1005.34 1005.23 1004.98 1004.64 1004.32 1004.12 1004.10 1004.30 1004.72 1005.30 1005.96 1006.61 1007.16 1007.58 1007.86 1008.03 1008.15 1008.28 1008.49 1008.82 1009.26 1009.80 1010.39 1010.97 1011.49 1011.91 1012.24 1012.46 1012.62 1012.73 1012.82 1012.90 1012.97 1013.02 1013.03 1012.99 1012.89
1006.51 1006.15 1005.66 1005.13 1004.65 1004.31 1004.14 1004.15 1004.31 1004.54 1004.76 1004.90 1004.91 1004.80 1004.59 1004.34 1004.13 1004.05 1004.14 1004.42 1004.86 1005.41 1005.99 1006.53 1006.97 1007.28 1007.47 1007.58 1007.69 1007.84 1008.09 1008.46 1008.96 1009.54 1010.16 1010.76 1011.29 1011.73 1012.06 1012.28 1012.43 1012.53 1012.60 1012.66 1012.69 1012.71 1012.69 1012.63 1012.51
1006.24 1005.94 1005.50 1005.03 1004.61 1004.29 1004.11 1004.08 1004.15 1004.27 1004.38 1004.43 1004.39 1004.28 1004.12 1003.97 1003.89 1003.94 1004.13 1004.46 1004.91 1005.41 1005.91 1006.35 1006.69 1006.92 1007.07 1007.19 1007.32 1007.53 1007.84 1008.27 1008.80 1009.40 1010.02 1010.60 1011.12 1011.53 1011.85 1012.07 1012.22 1012.32 1012.40 1012.45 1012.49 1012.49 1012.46 1012.38 1012.26
1006.05 1005.81 1005.45 1005.05 1004.68 1004.38 1004.19 1004.09 1004.06 1004.06 1004.06 1004.01 1003.93 1003.83 1003.73 1003.68 1003.72 1003.88 1004.15 1004.52 1004.96 1005.41 1005.82 1006.17 1006.44 1006.64 1006.79 1006.95 1007.16 1007.44 1007.82 1008.30 1008.85 1009.43 1010.00 1010.53 1010.99 1011.36 1011.64 1011.86 1012.02 1012.14 1012.24 1012.32 1012.37 1012.38 1012.34 1012.25 1012.12
1005.90 1005.72 1005.43 1005.10 1004.79 1004.53 1004.33 1004.19 1004.08 1003.98 1003.88 1003.77 1003.66 1003.58 1003.54 1003.59 1003.74 1003.99 1004.32 1004.70 1005.10 1005.49 1005.83 1006.11 1006.34 1006.53 1006.73 1006.97 1007.26 1007.63 1008.08 1008.58 1009.11 1009.64 1010.13 1010.57 1010.94 1011.24 1011.48 1011.68 1011.86 1012.01 1012.15 1012.26 1012.33 1012.35 1012.31 1012.20 1012.04
1005.74 1005.58 1005.35 1005.10 1004.86 1004.66 1004.49 1004.35 1004.21 1004.07 1003.92 1003.78 1003.67 1003.61 1003.65 1003.78 1004.01 1004.32 1004.68 1005.06 1005.42 1005.73 1006.00 1006.23 1006.44 1006.66 1006.91 1007.23 1007.62 1008.07 1008.56 1009.06 1009.55 1009.99 1010.37 1010.69 1010.95 1011.17 1011.37 1011.56 1011.74 1011.93 1012.10 1012.23 1012.32 1012.35 1012.29 1012.16 1011.95
1005.51 1005.34 1005.15 1004.97 1004.83 1004.73 1004.65 1004.57 1004.46 1004.33 1004.19 1004.06 1003.97 1003.96 1004.06 1004.25 1004.54 1004.88 1005.25 1005.60 1005.90 1006.15 1006.36 1006.54 1006.74 1006.99 1007.30 1007.69 1008.15 1008.66 1009.17 1009.65 1010.06 1010.40 1010.67 1010.86 1011.01 1011.15 1011.30 1011.46 1011.65 1011.86 1012.05 1012.20 1012.29 1012.30 1012.22 1012.05 1011.80
1005.19 1004.97 1004.80 1004.72 1004.71 1004.76 1004.82 1004.87 1004.86 1004.80 1004.71 1004.62 1004.57 1004.60 1004.73 1004.96 1005.27 1005.62 1005.96 1006.27 1006.51 1006.70 1006.85 1007.00 1007.19 1007.45 1007.81 1008.25 1008.76 1009.28 1009.78 1010.22 1010.56 1010.79 1010.94 1011.02 1011.07 1011.14 1011.24 1011.38 1011.57 1011.77 1011.96 1012.11 1012.18 1012.17 1012.05 1011.84 1011.54
1004.78 1004.51 1004.38 1004.41 1004.57 1004.82 1005.08 1005.31 1005.45 1005.50 1005.48 1005.43 1005.41 1005.45 1005.59 1005.81 1006.11 1006.43 1006.74 1006.99 1007.17 1007.30 1007.40 1007.51 1007.69 1007.96 1008.33 1008.79 1009.31 1009.83 1010.30 1010.67 1010.93 1011.07 1011.12 1011.11 1011.09 1011.10 1011.16 1011.29 1011.46 1011.65 1011.82 1011.94 1011.99 1011.93 1011.78 1011.53 1011.22
1004.33 1004.04 1003.99 1004.18 1004.55 1005.04 1005.54 1005.97 1006.28 1006.44 1006.48 1006.46 1006.43 1006.45 1006.55 1006.72 1006.97 1007.23 1007.47 1007.67 1007.79 1007.87 1007.92 1008.00 1008.16 1008.41 1008.78 1009.22 1009.72 1010.21 1010.63 1010.94 1011.13 1011.20 1011.18 1011.11 1011.04 1011.02 1011.05 1011.16 1011.31 1011.47 1011.61 1011.70 1011.70 1011.61 1011.43 1011.17 1010.86
1003.93 1003.68 1003.77 1004.17 1004.80 1005.55 1006.30 1006.93 1007.39 1007.64 1007.72 1007.68 1007.59 1007.52 1007.53 1007.61 1007.76 1007.94 1008.11 1008.24 1008.32 1008.35 1008.36 1008.41 1008.54 1008.77 1009.10 1009.51 1009.96 1010.39 1010.76 1011.02 1011.15 1011.17 1011.11 1011.01 1010.92 1010.88 1010.90 1010.99 1011.11 1011.24 1011.35 1011.39 1011.36 1011.24 1011.05 1010.80 1010.51
1003.69 1003.58 1003.87 1004.52 1005.43 1006.45 1007.42 1008.23 1008.80 1009.08 1009.13 1009.01 1008.80 1008.60 1008.47 1008.42 1008.45 1008.53 1008.63 1008.70 1008.73 1008.73 1008.72 1008.74 1008.83 1009.02 1009.30 1009.66 1010.05 1010.42 1010.73 1010.93 1011.02 1011.01 1010.94 1010.83 1010.75 1010.70 1010.71 1010.78 1010.88 1010.97 1011.03 1011.03 1010.97 1010.84 1010.66 1010.44 1010.20
1003.72 1003.82 1004.37 1005.31 1006.49 1007.74 1008.89 1009.82 1010.42 1010.67 1010.62 1010.37 1010.00 1009.63 1009.32 1009.12 1009.03 1009.01 1009.04 1009.06 1009.06 1009.04 1009.01 1009.01 1009.07 1009.21 1009.44 1009.73 1010.05 1010.36 1010.60 1010.76 1010.82 1010.80 1010.72 1010.62 1010.53 1010.49 1010.49 1010.53 1010.59 1010.64 1010.66 1010.63 1010.54 1010.41 1010.24 1010.06 1009.87
1004.10 1004.46 1005.30 1006.50 1007.91 1009.33 1010.60 1011.55 1012.12 1012.27 1012.08 1011.65 1011.09 1010.53 1010.06 1009.71 1009.51 1009.41 1009.38 1009.38 1009.36 1009.33 1009.30 1009.28 1009.31 1009.40 1009.57 1009.79 1010.04 1010.28 1010.47 1010.59 1010.62 1010.58 1010.50 1010.39 1010.31 1010.25 1010.23 1010.24 1010.25 1010.26 1010.23 1010.16 1010.05 1009.91 1009.75 1009.60 1009.46
1004.86 1005.50 1006.58 1008.00 1009.56 1011.07 1012.35 1013.25 1013.71 1013.71 1013.34 1012.73 1011.99 1011.27 1010.65 1010.19 1009.91 1009.76 1009.71 1009.69 1009.68 1009.65 1009.61 1009.57 1009.57 1009.62 1009.73 1009.89 1010.08 1010.25 1010.39 1010.46 1010.46 1010.40 1010.29 1010.17 1010.07 1009.98 1009.92 1009.89 1009.85 1009.80 1009.72 1009.60 1009.46 1009.30 1009.14 1008.99 1008.86
1006.01 1006.86 1008.13 1009.66 1011.27 1012.77 1013.96 1014.73 1015.02 1014.84 1014.29 1013.50 1012.62 1011.78 1011.08 1010.56 1010.24 1010.08 1010.02 1010.02 1010.01 1009.99 1009.94 1009.89 1009.86 1009.87 1009.93 1010.03 1010.15 1010.27 1010.35 1010.37 1010.33 1010.24 1010.10 1009.95 1009.80 1009.67 1009.56 1009.46 1009.36 1009.25 1009.10 1008.93 1008.74 1008.53 1008.34 1008.16 1008.01
1007.47 1008.45 1009.80 1011.33 1012.88 1014.25 1015.27 1015.84 1015.93 1015.55 1014.84 1013.93 1012.96 1012.06 1011.33 1010.81 1010.50 1010.36 1010.33 1010.34 1010.34 1010.32 1010.27 1010.21 1010.15 1010.12 1010.13 1010.18 1010.24 1010.30 1010.33 1010.31 1010.22 1010.08 1009.90 1009.70 1009.50 1009.31 1009.14 1008.97 1008.80 1008.61 1008.40 1008.16 1007.89 1007.62 1007.36 1007.11 1006.89
1009.15 1010.17 1011.47 1012.90 1014.27 1015.42 1016.20 1016.52 1016.39 1015.84 1015.00 1014.01 1013.01 1012.12 1011.42 1010.95 1010.69 1010.59 1010.59 1010.61 1010.62 1010.60 1010.53 1010.44 1010.35 1010.28 1010.26 1010.26 1010.28 1010.29 1010.27 1010.20 1010.07 1009.88 1009.64 1009.39 1009.13 1008.88 1008.65 1008.42 1008.18 1007.92 1007.64 1007.32 1006.97 1006.61 1006.25 1005.91 1005.59
1010.94 1011.89 1013.06 1014.29 1015.41 1016.27 1016.77 1016.84 1016.49 1015.79 1014.86 1013.84 1012.87 1012.03 1011.41 1011.00 1010.80 1010.75 1010.76 1010.79 1010.79 1010.74 1010.65 1010.52 1010.40 1010.31 1010.24 1010.22 1010.20 1010.18 1010.12 1010.01 1009.83 1009.59 1009.31 1009.01 1008.70 1008.40 1008.12 1007.84 1007.55 1007.24 1006.89 1006.49 1006.06 1005.60 1005.13 1004.67 1004.24
1012.70 1013.54 1014.52 1015.50 1016.34 1016.90 1017.12 1016.94 1016.41 1015.59 1014.60 1013.59 1012.66 1011.90 1011.35 1011.02 1010.86 1010.83 1010.84 1010.85 1010.81 1010.72 1010.58 1010.42 1010.26 1010.14 1010.06 1010.01 1009.98 1009.93 1009.84 1009.70 1009.48 1009.21 1008.89 1008.56 1008.22 1007.90 1007.59 1007.29 1006.97 1006.63 1006.23 1005.78 1005.28 1004.73 1004.16 1003.58 1003.04
1014.35 1015.07 1015.86 1016.61 1017.18 1017.47 1017.43 1017.04 1016.35 1015.44 1014.43 1013.44 1012.56 1011.85 1011.36 1011.06 1010.91 1010.86 1010.83 1010.78 1010.67 1010.52 1010.33 1010.13 1009.95 1009.81 1009.72 1009.66 1009.62 1009.56 1009.45 1009.28 1009.05 1008.75 1008.42 1008.08 1007.74 1007.42 1007.12 1006.83 1006.52 1006.18 1005.77 1005.29 1004.73 1004.12 1003.46 1002.80 1002.16
Thickness
5809 5814 5816 5813 5799 5790 5796 5818 5836 5834 5834 5843 5845 5837 5822 5813 5804 5793 5826 5838 5834 5825 5817 5811 5807 5803 5799 5795 5792 5790 5787 5784 5781 5778 5775 5773 5770 5768 5765 5763 5761 5758 5756 5755 5753 5751 5749 5748 5747
5812 5817 5814 5805 5787 5778 5798 5825 5829 5830 5837 5845 5844 5836 5824 5818 5826 5824 5828 5832 5831 5823 5816 5810 5804 5800 5796 5792 5789 5787 5784 5781 5778 5775 5772 5769 5767 5765 5763 5760 5758 5755 5753 5752 5750 5749 5747 5746 5744
5811 5817 5803 5795 5787 5787 5800 5826 5828 5835 5841 5840 5835 5832 5822 5816 5824 5825 5828 5831 5827 5821 5814 5806 5801 5797 5793 5789 5787 5783 5781 5778 5775 5772 5769 5767 5764 5762 5760 5757 5755 5753 5750 5749 5747 5746 5745 5743 5742
5808 5807 5800 5790 5787 5808 5818 5823 5830 5827 5833 5836 5832 5819 5819 5827 5827 5828 5831 5829 5822 5818 5812 5803 5798 5794 5790 5787 5784 5781 5778 5775 5772 5769 5767 5764 5761 5759 5757 5754 5752 5750 5748 5746 5745 5743 5742 5741 5739
5807 5796 5784 5781 5794 5816 5827 5830 5831 5822 5823 5826 5825 5810 5808 5825 5832 5830 5828 5825 5819 5816 5810 5801 5795 5791 5787 5784 5781 5778 5775 5773 5770 5767 5764 5762 5759 5756 5754 5752 5750 5748 5746 5744 5742 5740 5739 5738 5737
5795 5793 5774 5773 5795 5821 5830 5831 5828 5822 5822 5826 5821 5809 5806 5822 5824 5824 5825 5822 5819 5813 5807 5798 5792 5788 5785 5782 5779 5776 5773 5770 5767 5765 5762 5759 5756 5753 5751 5749 5747 5745 5743 5741 5739 5738 5736 5735 5733
5789 5783 5776 5785 5798 5814 5825 5832 5823 5817 5816 5821 5823 5805 5804 5814 5821 5823 5822 5820 5817 5811 5804 5796 5791 5786 5783 5779 5777 5774 5771 5768 5765 5763 5760 5757 5754 5751 5749 5747 5744 5742 5741 5739 5737 5736 5734 5732 5731
5802 5785 5778 5789 5795 5807 5824 5826 5825 5816 5814 5828 5824 5803 5796 5807 5820 5820 5817 5814 5810 5806 5801 5796 5791 5785 5781 5778 5775 5771 5768 5766 5763 5760 5757 5754 5752 5750 5747 5745 5742 5740 5739 5737 5735 5734 5732 5730 5729
5806 5777 5772 5787 5793 5804 5819 5815 5818 5822 5817 5818 5819 5813 5810 5812 5815 5811 5807 5804 5801 5797 5795 5794 5790 5785 5782 5778 5774 5769 5765 5763 5760 5757 5755 5752 5751 5749 5747 5745 5742 5739 5737 5735 5734 5732 5730 5729 5728
5794 5772 5781 5800 5803 5804 5810 5809 5810 5808 5802 5802 5806 5810 5811 5808 5806 5800 5796 5792 5790 5788 5790 5790 5786 5784 5781 5778 5772 5767 5764 5761 5758 5756 5753 5751 5750 5748 5746 5744 5741 5738 5736 5734 5732 5731 5729 5727 5727
5791 5781 5793 5803 5809 5808 5803 5802 5807 5797 5789 5795 5795 5796 5801 5800 5798 5795 5792 5789 5786 5786 5785 5786 5784 5781 5779 5775 5770 5767 5763 5760 5756 5754 5752 5749 5748 5746 5744 5742 5739 5737 5735 5732 5731 5729 5728 5727 5726
5790 5788 5796 5801 5806 5802 5797 5797 5797 5791 5791 5802 5802 5799 5796 5792 5790 5789 5786 5784 5783 5781 5781 5781 5780 5777 5775 5770 5767 5764 5761 5758 5755 5752 5749 5747 5745 5743 5741 5739 5737 5735 5733 5731 5730 5728 5728 5727 5726
5790 5790 5798 5801 5800 5800 5798 5791 5788 5786 5796 5800 5799 5794 5788 5786 5785 5785 5784 5781 5779 5776 5775 5776 5774 5772 5769 5765 5762 5760 5758 5755 5753 5750 5746 5743 5742 5739 5738 5735 5733 5731 5730 5729 5726 5725 5724 5723 5722
5794 5795 5796 5799 5799 5799 5791 5787 5783 5782 5790 5789 5787 5784 5782 5779 5779 5777 5775 5771 5771 5771 5770 5770 5768 5766 5763 5760 5757 5755 5753 5750 5749 5746 5742 5739 5737 5735 5734 5731 5729 5727 5725 5723 5722 5721 5719 5718 5717
5798 5788 5787 5793 5795 5794 5788 5773 5778 5783 5786 5780 5778 5776 5776 5775 5774 5771 5769 5766 5765 5764 5763 5762 5762 5760 5757 5755 5752 5751 5749 5746 5744 5741 5738 5735 5733 5731 5728 5726 5723 5722 5720 5718 5717 5716 5714 5712 5711
5790 5778 5769 5784 5793 5792 5778 5758 5775 5786 5781 5773 5772 5771 5769 5768 5768 5765 5764 5762 5760 5758 5757 5757 5758 5754 5751 5749 5748 5746 5744 5742 5740 5737 5734 5731 5729 5726 5723 5720 5718 5716 5715 5713 5712 5710 5707 5705 5704
5777 5763 5765 5776 5792 5790 5778 5764 5773 5781 5777 5770 5768 5766 5764 5762 5762 5760 5760 5758 5754 5752 5751 5750 5749 5747 5745 5744 5742 5741 5739 5737 5735 5732 5729 5726 5724 5722 5718 5715 5713 5711 5710 5708 5706 5704 5701 5698 5697
5764 5767 5768 5773 5786 5785 5775 5766 5770 5775 5774 5767 5765 5762 5760 5757 5756 5757 5757 5755 5751 5747 5746 5744 5743 5741 5740 5738 5737 5735 5733 5731 5730 5726 5723 5720 5718 5717 5714 5711 5709 5707 5704 5701 5699 5696 5695 5693 5692
5781 5773 5769 5778 5790 5781 5772 5767 5767 5768 5770 5765 5762 5759 5757 5754 5754 5754 5753 5750 5747 5742 5740 5739 5736 5734 5733 5731 5729 5726 5724 5724 5723 5721 5718 5716 5713 5711 5708 5705 5703 5701 5698 5695 5693 5691 5688 5687 5687
5779 5771 5770 5781 5790 5779 5768 5764 5767 5767 5767 5764 5760 5757 5754 5751 5749 5748 5746 5744 5740 5737 5735 5733 5730 5728 5727 5724 5723 5721 5719 5718 5718 5716 5713 5711 5708 5705 5703 5700 5698 5696 5693 5689 5686 5684 5681 5681 5681
5775 5772 5774 5775 5782 5780 5767 5754 5759 5766 5766 5764 5762 5759 5756 5750 5744 5742 5740 5738 5736 5732 5730 5728 5725 5723 5721 5719 5718 5716 5714 5712 5710 5708 5707 5706 5704 5701 5699 5695 5693 5691 5688 5683 5681 5679 5676 5673 5674
5769 5785 5782 5777 5768 5763 5766 5740 5750 5757 5755 5756 5757 5754 5752 5749 5745 5739 5735 5733 5730 5728 5726 5723 5720 5717 5715 5713 5710 5707 5704 5701 5701 5701 5701 5700 5698 5696 5693 5691 5689 5686 5683 5680 5677 5675 5672 5668 5666
5779 5789 5784 5780 5773 5763 5764 5746 5741 5752 5744 5746 5749 5750 5749 5747 5742 5737 5733 5729 5726 5723 5720 5716 5713 5710 5708 5705 5703 5701 5699 5697 5697 5696 5694 5693 5692 5690 5688 5686 5684 5682 5678 5675 5673 5670 5667 5665 5663
5791 5785 5781 5780 5773 5746 5754 5743 5730 5741 5740 5741 5742 5744 5745 5742 5738 5733 5730 5725 5721 5718 5714 5711 5706 5703 5701 5699 5697 5695 5693 5691 5689 5688 5687 5687 5686 5685 5684 5681 5679 5676 5673 5671 5668 5666 5664 5661 5660
5782 5763 5743 5737 5734 5733 5754 5743 5729 5743 5747 5743 5739 5737 5739 5736 5731 5725 5720 5716 5713 5710 5707 5704 5700 5696 5695 5693 5691 5690 5688 5687 5684 5683 5682 5680 5680 5679 5678 5676 5672 5670 5667 5666 5664 5662 5659 5657 5655
5771 5762 5735 5719 5724 5735 5749 5732 5729 5745 5747 5745 5741 5737 5733 5729 5725 5720 5715 5711 5707 5704 5701 5697 5693 5690 5689 5688 5686 5685 5684 5682 5680 5679 5677 5675 5673 5673 5672 5670 5667 5665 5663 5662 5659 5657 5655 5654 5652
5764 5763 5769 5747 5742 5735 5739 5732 5729 5739 5736 5735 5732 5728 5725 5722 5718 5714 5710 5706 5702 5698 5694 5691 5688 5686 5684 5683 5681 5680 5678 5676 5675 5674 5672 5671 5669 5668 5667 5665 5663 5660 5659 5657 5654 5652 5650 5649 5647
5778 5770 5757 5739 5720 5713 5725 5724 5713 5719 5721 5725 5724 5721 5720 5717 5712 5708 5705 5701 5698 5694 5691 5688 5685 5681 5679 5677 5675 5674 5673 5671 5670 5669 5667 5665 5664 5663 5662 5660 5658 5656 5654 5653 5650 5648 5647 5645 5643
5763 5761 5753 5744 5734 5713 5703 5708 5726 5721 5723 5722 5720 5718 5715 5711 5706 5703 5700 5697 5694 5690 5687 5683 5680 5677 5674 5672 5670 5667 5666 5665 5665 5663 5662 5660 5659 5658 5656 5655 5654 5653 5651 5649 5646 5644 5642 5640 5638
5766 5758 5751 5728 5722 5726 5713 5706 5731 5727 5726 5722 5717 5714 5711 5705 5702 5699 5695 5692 5688 5684 5681 5678 5676 5673 5670 5668 5665 5663 5661 5660 5659 5657 5656 5655 5654 5653 5652 5651 5650 5649 5647 5645 5642 5639 5638 5636 5634